This is the latest recevied weather packets stored in our database for station/object KA8DUX-2. If no packets are shown the sender has not sent any weather packets the latest 1 day(s).
| Time | Temp. | Humidity | Pressure | Rain* | Wind** | Luminosity | Snow |
|---|---|---|---|---|---|---|---|
| 1778058459 | 2.22° C | 86% | 1009 hPa | 0 mm | - | 0 W/m² | - |
| 1778058156 | 2.22° C | 85% | 1009.1 hPa | 0 mm | - | 0 W/m² | - |
| 1778057549 | 2.78° C | 84% | 1009 hPa | 0 mm | - | 0 W/m² | - |
| 1778056639 | 3.33° C | 82% | 1009.1 hPa | 0 mm | - | 0 W/m² | - |
| 1778056034 | 3.33° C | 81% | 1008.8 hPa | 0 mm | - | 0 W/m² | - |
| 1778055729 | 3.89° C | 81% | 1009 hPa | 0 mm | - | 0 W/m² | - |
| 1778055427 | 3.89° C | 80% | 1008.9 hPa | 0 mm | - | 0 W/m² | - |
| 1778054822 | 3.89° C | 80% | 1009 hPa | 0 mm | - | 0 W/m² | - |
| 1778053912 | 3.89° C | 82% | 1009.2 hPa | 0 mm | - | 0 W/m² | - |
| 1778053611 | 3.89° C | 81% | 1009 hPa | 0 mm | - | 0 W/m² | - |
| 1778052399 | 3.89° C | 78% | 1009.2 hPa | 0 mm | - | 0 W/m² | - |
| 1778052097 | 4.44° C | 78% | 1009.1 hPa | 0 mm | - | 0 W/m² | - |
| 1778051794 | 4.44° C | 77% | 1009.1 hPa | 0 mm | - | 0 W/m² | - |
| 1778051492 | 4.44° C | 77% | 1009.3 hPa | 0 mm | - | 0 W/m² | - |
| 1778050584 | 5° C | 76% | 1008.9 hPa | 0 mm | - | 0 W/m² | - |
| 1778049977 | 5° C | 73% | 1009 hPa | 0 mm | - | 0 W/m² | - |
| 1778049371 | 5.56° C | 70% | 1009.2 hPa | 0 mm | - | 0 W/m² | - |
| 1778049068 | 5.56° C | 70% | 1009.1 hPa | 0 mm | - | 0 W/m² | - |
| 1778048463 | 6.11° C | 69% | 1009.2 hPa | 0 mm | - | 0 W/m² | - |
| 1778047555 | 6.11° C | 69% | 1009.4 hPa | 0 mm | - | 0 W/m² | - |
| 1778046949 | 6.11° C | 68% | 1009.5 hPa | 0 mm | - | 0 W/m² | - |
| 1778046342 | 6.11° C | 67% | 1009.4 hPa | 0 mm | - | 0 W/m² | - |
| 1778046038 | 6.67° C | 66% | 1009.3 hPa | 0 mm | - | 0 W/m² | - |
| 1778044830 | 6.11° C | 68% | 1009.8 hPa | 0 mm | - | 0 W/m² | - |
| 1778043619 | 6.11° C | 68% | 1009.1 hPa | 0 mm | - | 0 W/m² | - |
* Rain latest hour (hover to see other rain measurements)
** Current wind speed in m/s (hover to see current wind gust speed)